Home   Weather   Antsirabe   Past weeks

Flag for Madagascar Past Weather in Antsirabe, Madagascar — Yesterday and Last 2 Weeks

Now
63 °F

Passing clouds.


Feels Like: 63 °F
Forecast: 53 / 79 °F
Wind: 2 mph from Southeast

Location: Antananarivo / Ivato

Current Time: Jan 22, 2017 at 11:27:12 pm

Latest Report: Jan 22, 2017 at 11:00 pm


Visibility: N/A

Pressure: 30.21 "Hg (25.30 "Hg at 1507m altitude)

Humidity: 88%

Dew Point: 59 °F

Location of AntsirabeLocation

Past Weather in Antsirabe — Graph

°F

Antsirabe Temperature Yesterday

Maximum temperature yesterday: 79 °F (at 3:30 pm)
Minimum temperature yesterday: 59 °F (at 4:00 am)
Average temperature yesterday: 69 °F

High & Low Weather Summary for the Past Weeks

 TemperatureHumidityPressure
High84 °F (Jan 9, 1:30 pm)100% (Jan 9, 2:30 am)30.21 "Hg (Jan 9, 2:30 am)
Low55 °F (Jan 20, 4:00 am)32% (Jan 22, 3:00 pm)29.92 "Hg (Jan 8, 4:00 pm)
Average70 °F70%30.10 "Hg
* Reported Jan 7 10:00 pm — Jan 22 10:00 pm, Antsirabe, Weather by CustomWeather, © 2017

Note: Actual official high and low records may vary slightly from our data, if they occured in-between our weather recording intervals... More about our weather records

Advertising

Antsirabe Weather History for the Previous 24 Hours

Scroll right to see more
 ConditionsComfort  
Time TempWeatherWind HumidityBarometerVisibility
10:00 pm
Sun, Jan 22
64 °FPassing clouds.12 mph83%30.21 "HgN/A
9:30 pm64 °FPassing clouds.15 mph83%30.21 "HgN/A
9:00 pm66 °FPassing clouds.14 mph78%30.21 "HgN/A
8:30 pm66 °FPassing clouds.10 mph78%30.18 "HgN/A
8:00 pm68 °FPassing clouds.15 mph73%30.18 "HgN/A
7:30 pm70 °FPassing clouds.16 mph69%30.18 "HgN/A
7:00 pm72 °FPassing clouds.15 mph65%30.15 "HgN/A
6:30 pm73 °FPassing clouds.15 mph53%30.15 "HgN/A
6:00 pm77 °FPassing clouds.13 mph42%30.15 "HgN/A
5:30 pm81 °FPassing clouds.10 mph34%30.12 "HgN/A
5:00 pm81 °FPassing clouds.12 mph32%30.12 "HgN/A
4:30 pm82 °FPassing clouds.10 mph35%30.12 "HgN/A
4:00 pm82 °FPassing clouds.12 mph35%30.12 "HgN/A
3:30 pm82 °FPleasantly warm.N/A32%30.12 "HgN/A
3:00 pm82 °FPassing clouds.6 mph32%30.12 "HgN/A
2:30 pm84 °FScattered clouds.9 mph35%30.12 "HgN/A
2:00 pm84 °FScattered clouds.10 mph35%30.12 "HgN/A
1:30 pm81 °FScattered clouds.13 mph37%30.12 "HgN/A
1:00 pm82 °FScattered clouds.10 mph40%30.15 "HgN/A
12:30 pm81 °FPartly sunny.10 mph39%30.15 "HgN/A
12:00 pm79 °FPartly sunny.15 mph42%30.15 "HgN/A
11:30 am81 °FPartly sunny.12 mph45%30.18 "HgN/A
11:00 am79 °FPartly sunny.14 mph48%30.18 "HgN/A
10:30 am77 °FScattered clouds.14 mph51%30.18 "HgN/A
10:00 am75 °FScattered clouds.13 mph54%30.18 "HgN/A
9:30 am73 °FScattered clouds.10 mph57%30.18 "HgN/A
9:00 am73 °FPartly sunny.14 mph57%30.21 "HgN/A
8:30 am73 °FPartly sunny.13 mph57%30.21 "HgN/A
8:00 am70 °FPartly sunny.10 mph69%30.21 "HgN/A
7:30 am64 °FPartly sunny.3 mph83%30.18 "HgN/A
7:00 am64 °FPartly sunny.No wind83%30.18 "HgN/A
6:00 am61 °FScattered clouds.No wind88%30.18 "HgN/A
5:30 am61 °FScattered clouds.No wind88%30.15 "HgN/A
5:00 am61 °FPassing clouds.No wind94%30.15 "HgN/A
4:30 am61 °FPassing clouds.No wind88%30.12 "HgN/A
4:00 am61 °FPassing clouds.No wind94%30.12 "HgN/A
3:30 am63 °FPassing clouds.No wind83%30.12 "HgN/A
3:00 am63 °FPassing clouds.3 mph83%30.12 "HgN/A
2:30 am61 °FPassing clouds.No wind88%30.15 "HgN/A
2:00 am61 °FPassing clouds.No wind88%30.15 "HgN/A
1:30 am61 °FPassing clouds.No wind94%30.18 "HgN/A
1:00 am61 °FPassing clouds.No wind94%30.18 "HgN/A
12:30 am61 °FPassing clouds.No wind88%30.18 "HgN/A
12:00 am63 °FPassing clouds.7 mph88%30.18 "HgN/A
11:30 pm
Sat, Jan 21
63 °FThundershowers. Passing clouds.7 mph83%30.18 "HgN/A
11:00 pm64 °FThundershowers. Passing clouds.10 mph83%30.18 "HgN/A
Weather by CustomWeather, © 2017

See weather overviewHow to use our weather pages